This demonstration page uses our WeatherBlox Daily Observations layout. Learn more.

40.92945, -100.16068

Hourly Observations for December 14, 2018

Temp ( °F °C ) Dew Point ( °F °C ) Humidity (%) Winds ( mph kmh ) Pressure ( in mb ) Visibility ( mi km ) Precip ( " mm )
12:15 am 00:15 Clear 24 -4.5 20 -6.5 86 86 W 5 7 30.42 1030 10 16.09344 0 0
12:35 am 00:35 Clear 23 -4.8 20 -6.8 86 86 WNW 6 9 30.42 1030 10 16.09344 0 0
12:55 am 00:55 Clear 22 -5.5 19 -7.1 89 89 WNW 5 7 30.39 1029 10 16.09344 0 0
1:15 am 01:15 Clear 22 -5.4 19 -7.1 88 88 W 6 9 30.39 1029 10 16.09344 0 0
1:35 am 01:35 Clear 22 -5.6 19 -7.2 89 89 WNW 3 6 30.39 1029 10 16.09344 0 0
1:55 am 01:55 Clear 22 -5.7 19 -7.3 89 89 W 5 7 30.39 1029 10 16.09344 0 0
2:15 am 02:15 Clear 22 -5.5 19 -7.2 88 88 WNW 6 9 30.39 1029 10 16.09344 0 0
2:35 am 02:35 Clear 23 -5.1 19 -7 87 87 WNW 7 11 30.42 1030 10 16.09344 0 0
2:55 am 02:55 Clear 23 -5 19 -7 86 86 WNW 7 11 30.42 1030 10 16.09344 0 0
3:15 am 03:15 Clear 23 -5 19 -7.1 85 85 WNW 7 11 30.42 1030 10 16.09344 0 0
3:35 am 03:35 Clear 23 -5 19 -7.1 85 85 WNW 7 11 30.42 1030 10 16.09344 0 0
3:55 am 03:55 Clear 22 -5.4 19 -7.4 86 86 WNW 7 11 30.39 1029 10 16.09344 0 0
4:15 am 04:15 Clear 22 -5.3 19 -7.5 85 85 WNW 7 11 30.39 1029 10 16.09344 0 0
4:35 am 04:35 Clear 22 -5.5 19 -7.5 86 86 WNW 6 9 30.39 1029 10 16.09344 0 0
4:55 am 04:55 Clear 22 -5.5 18 -7.6 85 85 WNW 8 13 30.39 1029 10 16.09344 0 0
5:15 am 05:15 Clear 22 -5.5 19 -7.5 86 86 WNW 6 9 30.39 1029 10 16.09344 0 0
5:35 am 05:35 Clear 22 -5.7 18 -7.7 86 86 WNW 7 11 30.39 1029 10 16.09344 0 0
5:55 am 05:55 Clear 21 -6.2 17 -8.1 87 87 WNW 5 7 30.42 1030 10 16.09344 0 0
6:15 am 06:15 Clear 21 -6 18 -8 86 86 WNW 6 9 30.39 1029 10 16.09344 0 0
6:35 am 06:35 Clear 21 -6.1 17 -8.2 85 85 WNW 5 7 30.45 1031 10 16.09344 0 0
6:55 am 06:55 Clear 21 -6.1 17 -8.2 85 85 WNW 7 11 30.45 1031 10 16.09344 0 0
7:15 am 07:15 Clear 21 -6 17 -8.2 85 85 WNW 7 11 30.45 1031 10 16.09344 0 0
7:35 am 07:35 Clear 21 -6 17 -8.2 85 85 WNW 7 11 30.45 1031 10 16.09344 0 0
7:55 am 07:55 Clear 22 -5.6 17 -8.1 83 83 WNW 10 17 30.42 1030 10 16.09344 0 0
8:15 am 08:15 Sunny 22 -5.5 18 -8 83 83 WNW 9 15 30.42 1030 10 16.09344 0 0
8:35 am 08:35 Sunny 23 -5 19 -7.5 83 83 WNW 8 13 30.42 1030 10 16.09344 0 0
8:55 am 08:55 Sunny 24 -4.2 19 -7 81 81 WNW 10 17 30.42 1030 10 16.09344 0 0
9:15 am 09:15 Sunny 26 -3.5 20 -6.4 81 81 WNW 10 17 30.42 1030 10 16.09344 0 0
9:35 am 09:35 Sunny 28 -2.5 22 -5.3 81 81 WNW 10 17 30.39 1029 10 16.09344 0 0
9:55 am 09:55 Sunny 29 -1.6 23 -5.2 77 77 WNW 14 22 30.39 1029 10 16.09344 0 0
10:15 am 10:15 Sunny 30 -1 24 -4.7 76 76 WNW 10 17 30.42 1030 10 16.09344 0 0
10:35 am 10:35 Sunny 32 -0.1 25 -3.9 76 76 WNW 12 19 30.42 1030 10 16.09344 0 0
10:55 am 10:55 Sunny 33 0.5 26 -3.4 75 75 WNW 10 17 30.36 1028 10 16.09344 0 0
11:15 am 11:15 Sunny 34 1.2 26 -3.1 73 73 WNW 10 17 30.36 1028 10 16.09344 0 0
11:35 am 11:35 Sunny 36 2.2 28 -2.4 72 72 WNW 10 17 30.36 1028 10 16.09344 0 0
11:55 am 11:55 Sunny 38 3.1 28 -2.3 68 68 WNW 9 15 30.33 1027 10 16.09344 0 0
12:15 pm 12:15 Sunny 39 3.7 28 -2.1 66 66 WNW 10 17 30.33 1027 10 16.09344 0 0
12:35 pm 12:35 Sunny 40 4.5 29 -1.6 65 65 W 10 17 30.33 1027 10 16.09344 0 0
12:55 pm 12:55 Sunny 40 4.7 28 -2 62 62 WNW 8 13 30.3 1026 10 16.09344 0 0
1:15 pm 13:15 Sunny 42 5.4 29 -1.8 60 60 WNW 10 17 30.3 1026 10 16.09344 0 0
1:35 pm 13:35 Sunny 42 5.8 29 -1.7 59 59 WNW 10 17 30.27 1025 10 16.09344 0 0
1:55 pm 13:55 Sunny 44 6.5 29 -1.4 57 57 WNW 8 13 30.27 1025 10 16.09344 0 0
2:15 pm 14:15 Sunny 45 7 30 -1.2 56 56 WNW 7 11 30.27 1025 10 16.09344 0 0
2:35 pm 14:35 Sunny 45 7.2 30 -1.2 56 56 WNW 6 9 30.27 1025 10 16.09344 0 0
2:55 pm 14:55 Sunny 46 7.5 31 -0.4 58 58 WNW 6 9 30.27 1025 10 16.09344 0 0
3:15 pm 15:15 Sunny 46 7.7 30 -1 54 54 WNW 7 11 30.27 1025 10 16.09344 0 0
3:35 pm 15:35 Sunny 46 7.7 31 -0.7 56 56 WNW 6 9 30.27 1025 10 16.09344 0 0
3:55 pm 15:55 Sunny 46 7.5 31 -0.3 58 58 WNW 5 7 30.27 1025 10 16.09344 0 0
4:15 pm 16:15 Sunny 45 7 32 0 61 61 NW 5 7 30.27 1025 10 16.09344 0 0
4:35 pm 16:35 Sunny 42 5.7 32 0 67 67 WNW 8 13 30.27 1025 10 16.09344 0 0
4:55 pm 16:55 Sunny 39 4.1 31 -0.5 72 72 WNW 9 15 30.3 1026 10 16.09344 0 0
5:15 pm 17:15 Clear 37 2.7 30 -1.1 76 76 NW 9 15 30.3 1026 10 16.09344 0 0
5:35 pm 17:35 Clear 35 1.6 29 -1.5 80 80 NW 8 13 30.3 1026 10 16.09344 0 0
5:55 pm 17:55 Clear 36 2.1 30 -1.3 78 78 Calm 30.3 1026 10 16.09344 0 0
6:15 pm 18:15 Clear 36 2 29 -1.7 77 77 Calm 30.3 1026 10 16.09344 0 0
6:35 pm 18:35 Clear 33 0.8 28 -2.1 81 81 Calm 30.3 1026 10 16.09344 0 0
6:55 pm 18:55 Clear 32 -0.1 27 -2.9 82 82 W 5 7 30.3 1026 10 16.09344 0 0
7:15 pm 19:15 Clear 32 -0.2 28 -2.2 87 87 Calm 30.3 1026 10 16.09344 0 0
7:35 pm 19:35 Clear 32 0 28 -2.1 86 86 W 5 7 30.3 1026 10 16.09344 0 0
7:55 pm 19:55 Clear 31 -0.8 27 -3 85 85 WSW 3 6 30.33 1027 10 16.09344 0 0
8:15 pm 20:15 Clear 31 -0.8 27 -2.6 88 88 W 6 9 30.33 1027 10 16.09344 0 0
8:35 pm 20:35 Clear 30 -1 26 -3.2 85 85 W 5 7 30.33 1027 10 16.09344 0 0
8:55 pm 20:55 Clear 28 -2.1 25 -3.9 88 88 Calm 30.33 1027 10 16.09344 0 0
9:15 pm 21:15 Clear 29 -1.7 26 -3.3 89 89 Calm 30.33 1027 10 16.09344 0 0
9:35 pm 21:35 Clear 28 -2.2 26 -3.6 90 90 Calm 30.33 1027 10 16.09344 0 0
9:55 pm 21:55 Clear 28 -2 25 -3.8 88 88 Calm 30.33 1027 10 16.09344 0 0
10:15 pm 22:15 Clear 28 -2.2 25 -4 88 88 Calm 30.3 1026 10 16.09344 0 0
10:35 pm 22:35 Clear 26 -3.1 24 -4.4 91 91 Calm 30.33 1027 10 16.09344 0 0
10:55 pm 22:55 Clear 26 -3.2 24 -4.5 91 91 Calm 30.3 1026 10 16.09344 0 0
11:15 pm 23:15 Clear 27 -3 24 -4.3 91 91 Calm 30.3 1026 10 16.09344 0 0
11:35 pm 23:35 Clear 27 -3 24 -4.5 90 90 Calm 30.3 1026 10 16.09344 0 0
11:55 pm 23:55 Clear 26 -3.2 24 -4.5 91 91 NW 3 6 30.3 1026 10 16.09344 0 0

Powered by AerisWeather